User: anonymous   Login
Location: Azul
(36.7830°S, 59.8500°W)
Time: 09:54:38
(UTC-03:00)
Language:

BEESAT 2 - Orbit

View from above orbital plane
View from above orbital plane
View from above satellite
View from above satellite

Ground track
Ground track

The orbit data is extracted from the following two-line orbital elements,

1 39136U 13015G   21295.04815611  .00002005  00000-0  10369-3 0  9996
2 39136  64.8746 158.8185 0015790 242.9587 116.9928 15.19313987470143
Epoch (UTC): 22 October 2021 01:09:20
Eccentricity: 0.0015790
inclination: 64.8746°
perigee height: 497 km
apogee height: 519 km
right ascension of ascending node: 158.8185°
argument of perigee: 242.9587°
revolutions per day: 15.19313987
mean anomaly at epoch: 116.9928°
orbit number at epoch: 47014

The dashed part of the orbit path shows where the satellite is in the earth's shadow,  

DLR